Location: Unspecified
(44.0704°N, 88.6889°W)
Time: 06:30:14
(UTC+02:00)

Okean 3 - Pass Details

Date: 28 March 2019
Orbit: 576 x 602 km, 82.5° (Epoch: 21 April)

Event Time Altitude Azimuth Distance (km) Brightness Sun altitude
Exits shadow 11:44:23 11° 221° (SW) 1,869 5.5 -11.3°
Maximum altitude 11:48:05 33° 285° (WNW) 1,025 4.2 -10.7°
Drops below altitude 10° 11:52:00 10° 350° (N) 1,955 6.2 -10.0°
Sets 11:54:24 0° 0° (N) 2,861 7.2 -9.6°
